Fremont, MI

1:19 AM EDT on September 19, 2019 (GMT -0400)
Fremont

Weather History for KFFX - June, 2019

Change the Weather History Date:

Sunday, June 2, 2019

  Actual Average (KMKG) Record (KMKG)
Temperature  
Mean Temperature 54 °F -  
Max Temperature 65 °F 70 °F 87 °F (1963)
Min Temperature 44 °F 49 °F 35 °F (2003)
Degree Days  
Heating Degree Days 10    
Growing Degree Days 4 (Base 50)    
Moisture  
Dew Point 40 °F    
Average Humidity 63    
Maximum Humidity 100    
Minimum Humidity 24    
Precipitation  
Precipitation 0.00 in - - ()
Sea Level Pressure  
Sea Level Pressure 29.89 in    
Wind  
Wind Speed 6 mph ()    
Max Wind Speed 20 mph    
Max Gust Speed 26 mph    
Visibility 10.0 miles    
Events      
Averages and records for this station are not official NWS values.
T = Trace of Precipitation, MM = Missing Value Source: Averaged Metar Reports

Daily Weather History Graph

Daily Weather History Graph

Search for Another Location

Airport or City:

Astronomy

Jun. 02, 2019 Rise Set
Actual Time 6:05 AM EDT 9:18 PM EDT
Civil Twilight 5:30 AM EDT 9:53 PM EDT
Nautical Twilight 4:45 AM EDT 10:38 PM EDT
Astronomical Twilight 3:51 AM EDT 11:33 PM EDT
Moon 5:48 AM EDT (6/2) 8:34 PM EDT (6/2)
Length of Visible Light 16h 22m
Length of Day
15h 12m
Waning Crescent, 1% of the Moon is Illuminated
Jun 2
Waning Crescent
Jun 3
New
Jun 10
First Quarter
Jun 17
Full
Jun 25
Last Quarter

Hourly Weather History & Observations

Time (EDT) Temp. Windchill Dew Point Humidity Pressure Visibility Wind Dir Wind Speed Gust Speed Precip Events Conditions
12:15 AM 52.0 °F - 51.4 °F 98% 29.77 in 10.0 mi NNW 4.6 mph - N/A   Clear
12:35 AM 51.3 °F - 51.3 °F 100% 29.77 in 10.0 mi NNW 5.8 mph - N/A   Clear
12:36 AM 51.3 °F - 51.3 °F 100% 29.77 in 10.0 mi NNW 5.8 mph - N/A   Clear
12:55 AM 51.3 °F - 51.1 °F 99% 29.78 in 10.0 mi NNW 6.9 mph - N/A   Clear
12:56 AM 51.3 °F - 51.1 °F 99% 29.78 in 10.0 mi NNW 5.8 mph - N/A   Clear
1:15 AM 50.9 °F - 50.7 °F 99% 29.79 in 10.0 mi NNW 5.8 mph - N/A   Clear
1:17 AM 50.9 °F - 50.5 °F 99% 29.79 in 10.0 mi NNW 5.8 mph - N/A   Clear
1:35 AM 50.4 °F - 50.4 °F 100% 29.79 in 10.0 mi NNW 5.8 mph - N/A   Clear
1:55 AM 49.6 °F - 49.6 °F 100% 29.80 in 10.0 mi NNW 4.6 mph - N/A   Clear
1:56 AM 49.6 °F - 49.6 °F 100% 29.80 in 10.0 mi NNW 4.6 mph - N/A   Clear
2:16 AM 49.1 °F - 49.1 °F 100% 29.80 in 10.0 mi NNW 5.8 mph - N/A   Clear
2:35 AM 49.1 °F - 49.1 °F 100% 29.80 in 10.0 mi North 5.8 mph - N/A   Clear
2:36 AM 49.1 °F - 49.1 °F 100% 29.80 in 10.0 mi North 5.8 mph - N/A   Clear
2:56 AM 49.5 °F - 48.2 °F 95% 29.80 in 10.0 mi NNE 3.5 mph - N/A   Clear
3:15 AM 49.1 °F - 47.3 °F 93% 29.80 in 10.0 mi NE 4.6 mph - N/A   Clear
3:16 AM 49.1 °F - 47.3 °F 93% 29.80 in 10.0 mi ENE 4.6 mph - N/A   Clear
3:35 AM 49.1 °F - 47.1 °F 93% 29.80 in 10.0 mi NE 4.6 mph - N/A   Clear
3:55 AM 47.7 °F - 46.2 °F 95% 29.80 in 10.0 mi NNW 5.8 mph - N/A   Clear
4:15 AM 47.5 °F - 46.4 °F 96% 29.80 in 10.0 mi Calm Calm - N/A   Clear
4:16 AM 47.5 °F - 46.4 °F 96% 29.80 in 10.0 mi Calm Calm - N/A   Clear
4:35 AM 46.6 °F - 45.7 °F 97% 29.81 in 10.0 mi NNW 5.8 mph - N/A   Clear
4:37 AM 46.4 °F 43.5 °F 45.7 °F 97% 29.82 in 10.0 mi NNW 5.8 mph - N/A   Clear
4:55 AM 46.4 °F 44.3 °F 45.5 °F 97% 29.81 in 10.0 mi North 4.6 mph - N/A   Clear
4:56 AM 46.4 °F 44.3 °F 45.5 °F 97% 29.81 in 10.0 mi North 4.6 mph - N/A   Clear
5:16 AM 45.7 °F 43.4 °F 45.1 °F 98% 29.82 in 10.0 mi NW 4.6 mph - N/A   Clear
5:35 AM 45.3 °F - 44.8 °F 98% 29.82 in 10.0 mi Calm Calm - N/A   Scattered Clouds
5:36 AM 45.3 °F - 44.8 °F 98% 29.82 in 10.0 mi Calm Calm - N/A   Scattered Clouds
5:55 AM 44.8 °F - 44.2 °F 98% 29.82 in 10.0 mi Calm Calm - N/A   Mostly Cloudy
5:57 AM 44.6 °F - 44.2 °F 99% 29.82 in 10.0 mi Calm Calm - N/A   Mostly Cloudy
6:15 AM 45.7 °F - 45.5 °F 99% 29.82 in 10.0 mi Calm Calm - N/A   Overcast
6:16 AM 45.7 °F - 45.5 °F 99% 29.82 in 10.0 mi Calm Calm - N/A   Overcast
6:35 AM 45.7 °F - 45.1 °F 98% 29.83 in 10.0 mi Calm Calm - N/A   Overcast
6:37 AM 45.7 °F - 45.1 °F 98% 29.83 in 10.0 mi Calm Calm - N/A   Overcast
6:55 AM 45.5 °F - 45.5 °F 100% 29.83 in 10.0 mi Calm Calm - N/A   Overcast
6:56 AM 45.7 °F - 45.5 °F 99% 29.83 in 10.0 mi Calm Calm - N/A   Overcast
7:15 AM 47.1 °F - 46.6 °F 98% 29.84 in 10.0 mi Calm Calm - N/A   Overcast
7:16 AM 47.1 °F - 46.8 °F 99% 29.84 in 10.0 mi Calm Calm - N/A   Overcast
7:36 AM 48.2 °F - 46.9 °F 95% 29.85 in 10.0 mi North 3.5 mph - N/A   Overcast
7:55 AM 49.6 °F - 47.5 °F 92% 29.86 in 10.0 mi North 3.5 mph - N/A   Overcast
8:15 AM 51.6 °F - 46.6 °F 83% 29.86 in 10.0 mi Calm Calm - N/A   Scattered Clouds
8:36 AM 53.6 °F - 45.7 °F 75% 29.86 in 10.0 mi North 4.6 mph - N/A   Clear
8:55 AM 55.0 °F - 46.2 °F 72% 29.87 in 10.0 mi NW 4.6 mph - N/A   Clear
8:56 AM 55.0 °F - 46.2 °F 72% 29.87 in 10.0 mi NW 4.6 mph - N/A   Clear
9:15 AM 56.5 °F - 45.7 °F 67% 29.88 in 10.0 mi NNW 5.8 mph - N/A   Clear
9:36 AM 58.3 °F - 45.1 °F 62% 29.88 in 10.0 mi North 5.8 mph - N/A   Clear
9:55 AM 59.4 °F - 44.8 °F 58% 29.89 in 10.0 mi North 5.8 mph - N/A   Clear
9:56 AM 59.4 °F - 44.6 °F 58% 29.89 in 10.0 mi North 5.8 mph - N/A   Clear
10:15 AM 60.1 °F - 44.8 °F 57% 29.89 in 10.0 mi NNW 6.9 mph - N/A   Clear
10:17 AM 60.3 °F - 44.8 °F 57% 29.89 in 10.0 mi NW 9.2 mph - N/A   Clear
10:35 AM 61.7 °F - 46.6 °F 58% 29.89 in 10.0 mi NNW 6.9 mph - N/A   Clear
10:36 AM 61.9 °F - 46.6 °F 57% 29.89 in 10.0 mi NNW 5.8 mph - N/A   Clear
10:55 AM 62.2 °F - 45.1 °F 54% 29.91 in 10.0 mi NNW 9.2 mph - N/A   Clear
10:56 AM 62.2 °F - 45.1 °F 54% 29.91 in 10.0 mi North 10.4 mph - N/A   Clear
11:16 AM 63.5 °F - 42.8 °F 47% 29.91 in 10.0 mi NNW 11.5 mph - N/A   Clear
11:35 AM 64.4 °F - 43.7 °F 47% 29.91 in 10.0 mi NW 9.2 mph 17.3 mph N/A   Scattered Clouds
11:56 AM 65.3 °F - 40.5 °F 40% 29.92 in 10.0 mi NW 11.5 mph 19.6 mph N/A   Scattered Clouds
12:15 PM 65.1 °F - 33.4 °F 31% 29.92 in 10.0 mi NW 18.4 mph 26.5 mph N/A   Scattered Clouds
12:35 PM 65.3 °F - 33.3 °F 30% 29.92 in 10.0 mi NW 13.8 mph 23.0 mph N/A   Clear
12:55 PM 65.1 °F - 33.8 °F 31% 29.92 in 10.0 mi NW 16.1 mph 24.2 mph N/A   Clear
12:56 PM 65.3 °F - 34.3 °F 32% 29.92 in 10.0 mi WNW 15.0 mph 24.2 mph N/A   Clear
1:15 PM 65.3 °F - 37.9 °F 36% 29.92 in 10.0 mi NNW 9.2 mph 21.9 mph N/A   Scattered Clouds
1:35 PM 64.4 °F - 36.0 °F 35% 29.93 in 10.0 mi North 17.3 mph - N/A   Scattered Clouds
1:55 PM 64.6 °F - 35.2 °F 34% 29.93 in 10.0 mi NW 15.0 mph 26.5 mph N/A   Clear
2:15 PM 64.9 °F - 37.2 °F 36% 29.93 in 10.0 mi NW 13.8 mph 25.3 mph N/A   Clear
2:16 PM 64.9 °F - 36.9 °F 35% 29.93 in 10.0 mi NW 13.8 mph 25.3 mph N/A   Clear
2:35 PM 64.6 °F - 34.2 °F 32% 29.92 in 10.0 mi NNW 12.7 mph 20.7 mph N/A   Clear
2:36 PM 64.6 °F - 34.5 °F 33% 29.92 in 10.0 mi North 15.0 mph 20.7 mph N/A   Clear
2:56 PM 64.2 °F - 31.5 °F 29% 29.93 in 10.0 mi NNW 19.6 mph 24.2 mph N/A   Clear
3:15 PM 64.0 °F - 30.6 °F 28% 29.93 in 10.0 mi NNW 16.1 mph 21.9 mph N/A   Clear
3:16 PM 64.0 °F - 30.7 °F 29% 29.93 in 10.0 mi North 16.1 mph 21.9 mph N/A   Clear
3:36 PM 64.2 °F - 28.2 °F 26% 29.94 in 10.0 mi NNW 18.4 mph 24.2 mph N/A   Clear
3:55 PM 64.2 °F - 28.9 °F 27% 29.94 in 10.0 mi NNW 16.1 mph 24.2 mph N/A   Clear
3:56 PM 64.4 °F - 28.4 °F 26% 29.94 in 10.0 mi NNW 15.0 mph 24.2 mph N/A   Clear
4:15 PM 63.5 °F - 26.1 °F 24% 29.95 in 10.0 mi NNW 19.6 mph 26.5 mph N/A   Clear
4:16 PM 63.5 °F - 26.6 °F 25% 29.95 in 10.0 mi NNW 18.4 mph 26.5 mph N/A   Clear
4:35 PM 63.7 °F - 31.3 °F 30% 29.95 in 10.0 mi NNW 15.0 mph - N/A   Clear
4:36 PM 63.7 °F - 31.3 °F 30% 29.95 in 10.0 mi North 15.0 mph - N/A   Clear
4:55 PM 62.6 °F - 28.9 °F 28% 29.95 in 10.0 mi NW 13.8 mph 24.2 mph N/A   Clear
4:56 PM 62.6 °F - 29.5 °F 29% 29.95 in 10.0 mi NW 12.7 mph 24.2 mph N/A   Clear
5:15 PM 63.0 °F - 30.6 °F 30% 29.95 in 10.0 mi NW 16.1 mph 20.7 mph N/A   Clear
5:35 PM 62.6 °F - 30.7 °F 30% 29.95 in 10.0 mi NNW 9.2 mph 17.3 mph N/A   Clear
5:55 PM 62.1 °F - 30.7 °F 31% 29.96 in 10.0 mi North 9.2 mph 19.6 mph N/A   Clear
6:15 PM 62.1 °F - 31.3 °F 31% 29.96 in 10.0 mi North 15.0 mph - N/A   Clear
6:16 PM 62.1 °F - 30.9 °F 31% 29.96 in 10.0 mi North 15.0 mph - N/A   Clear
6:36 PM 61.9 °F - 32.0 °F 33% 29.95 in 10.0 mi North 10.4 mph - N/A   Clear
6:55 PM 61.0 °F - 31.5 °F 33% 29.95 in 10.0 mi North 10.4 mph - N/A   Clear
6:56 PM 61.0 °F - 31.6 °F 33% 29.95 in 10.0 mi North 10.4 mph - N/A   Clear
7:15 PM 60.8 °F - 30.2 °F 31% 29.95 in 10.0 mi North 9.2 mph - N/A   Clear
7:16 PM 60.8 °F - 30.6 °F 32% 29.95 in 10.0 mi North 8.1 mph - N/A   Clear
7:36 PM 60.3 °F - 30.9 °F 33% 29.96 in 10.0 mi NNW 11.5 mph - N/A   Clear
7:55 PM 59.7 °F - 32.0 °F 35% 29.96 in 10.0 mi North 9.2 mph - N/A   Clear
8:16 PM 58.6 °F - 29.7 °F 33% 29.97 in 10.0 mi NNW 9.2 mph - N/A   Clear
8:35 PM 57.2 °F - 29.5 °F 35% 29.97 in 10.0 mi NNW 8.1 mph - N/A   Clear
8:56 PM 55.2 °F - 32.4 °F 42% 29.98 in 10.0 mi NNW 5.8 mph - N/A   Clear
9:15 PM 53.1 °F - 33.6 °F 48% 29.98 in 10.0 mi NNW 4.6 mph - N/A   Clear
9:16 PM 52.9 °F - 33.8 °F 48% 29.98 in 10.0 mi NNW 4.6 mph - N/A   Clear
9:36 PM 51.8 °F - 34.7 °F 52% 29.98 in 10.0 mi North 3.5 mph - N/A   Clear
9:55 PM 51.4 °F - 35.8 °F 55% 29.99 in 10.0 mi NNW 4.6 mph - N/A   Clear
9:56 PM 51.3 °F - 36.0 °F 56% 29.99 in 10.0 mi NNW 4.6 mph - N/A   Clear
10:15 PM 50.2 °F - 35.2 °F 57% 30.00 in 10.0 mi North 3.5 mph - N/A   Clear
10:16 PM 50.4 °F - 35.1 °F 56% 30.00 in 10.0 mi North 3.5 mph - N/A   Clear
10:35 PM 50.0 °F - 33.8 °F 54% 30.02 in 10.0 mi North 6.9 mph - N/A   Clear
10:55 PM 50.9 °F - 32.2 °F 49% 30.03 in 10.0 mi North 6.9 mph - N/A   Clear
11:15 PM 49.3 °F - 32.0 °F 51% 30.04 in 10.0 mi NNE 5.8 mph - N/A   Clear
11:16 PM 49.3 °F - 32.0 °F 51% 30.04 in 10.0 mi NNE 5.8 mph - N/A   Clear
11:35 PM 48.7 °F - 30.7 °F 50% 30.04 in 10.0 mi NNE 6.9 mph - N/A   Scattered Clouds
11:56 PM 48.2 °F - 27.9 °F 45% 30.05 in 10.0 mi NNE 6.9 mph - N/A   Clear